Rochester, NH

10:12 AM EDT on October 23, 2017 (GMT -0400)
Skyhaven

Weather History for KDAW - April, 2013

Change the Weather History Date:

Monday, April 22, 2013

  Actual Average (KPSM) Record (KPSM)
Temperature  
Mean Temperature 39 °F -  
Max Temperature 50 °F 56 °F 85 °F (1977)
Min Temperature 30 °F 36 °F 25 °F (1981)
Degree Days  
Heating Degree Days 26    
Moisture  
Dew Point 25 °F    
Average Humidity 57    
Maximum Humidity 82    
Minimum Humidity 30    
Precipitation  
Precipitation 0.00 in - - ()
Sea Level Pressure  
Sea Level Pressure 30.70 in    
Wind  
Wind Speed 7 mph (ENE)    
Max Wind Speed 14 mph    
Max Gust Speed 23 mph    
Visibility 10 miles    
Events      
Averages and records for this station are not official NWS values.
T = Trace of Precipitation, MM = Missing Value Source: NWS Daily Summary

Daily Weather History Graph

Daily Weather History Graph

Search for Another Location

Airport or City:

Trip Planner

Search our weather history database for the weather conditions in past years. The results will help you decide how hot, cold, wet, or windy it might be!

Date:

Astronomy

Apr. 22, 2013 Rise Set
Actual Time 5:49 AM EDT 7:35 PM EDT
Civil Twilight 5:19 AM EDT 8:05 PM EDT
Nautical Twilight 4:42 AM EDT 8:42 PM EDT
Astronomical Twilight 4:03 AM EDT 9:22 PM EDT
Moon 4:15 PM EDT (4/22) 3:48 AM EDT (4/22)
Length of Visible Light 14h 45m
Length of Day
13h 45m
Waxing Gibbous, 87% of the Moon is Illuminated
Apr 22
Waxing Gibbous
Apr 25
Full
May 2
Last Quarter
May 9
New
May 18
First Quarter

Hourly Weather History & Observations

Time (EDT) Temp. Windchill Dew Point Humidity Pressure Visibility Wind Dir Wind Speed Gust Speed Precip Events Conditions
12:51 AM 30.9 °F 26.2 °F 25.0 °F 79% 30.69 in 10.0 mi NW 4.6 mph - N/A   Clear
1:51 AM 32.0 °F 26.4 °F 24.1 °F 73% 30.69 in 10.0 mi NW 5.8 mph - N/A   Clear
2:51 AM 30.9 °F 24.3 °F 23.0 °F 72% 30.69 in 10.0 mi NNW 6.9 mph - N/A   Clear
3:51 AM 33.1 °F 27.7 °F 18.0 °F 54% 30.70 in 10.0 mi North 5.8 mph - N/A   Clear
4:51 AM 33.1 °F 28.7 °F 16.0 °F 50% 30.71 in 10.0 mi North 4.6 mph - N/A   Clear
5:51 AM 33.1 °F 27.7 °F 16.0 °F 50% 30.73 in 10.0 mi North 5.8 mph - N/A   Clear
6:51 AM 34.0 °F 28.8 °F 16.0 °F 48% 30.75 in 10.0 mi North 5.8 mph - N/A   Clear
7:51 AM 37.9 °F 34.4 °F 19.0 °F 47% 30.76 in 10.0 mi NNE 4.6 mph - N/A   Clear
8:51 AM 42.1 °F 36.1 °F 26.1 °F 53% 30.76 in 10.0 mi ENE 10.4 mph - N/A   Clear
9:51 AM 46.0 °F 41.9 °F 28.0 °F 50% 30.76 in 10.0 mi East 8.1 mph 18.4 mph N/A   Clear
10:51 AM 46.9 °F - 23.0 °F 39% 30.79 in 10.0 mi ESE 12.7 mph 19.6 mph N/A   Clear
11:51 AM 48.0 °F - 23.0 °F 37% 30.76 in 10.0 mi East 13.8 mph 20.7 mph N/A   Clear
12:51 PM 48.9 °F - 21.0 °F 33% 30.73 in 10.0 mi SE 9.2 mph 18.4 mph N/A   Clear
1:51 PM 48.9 °F - 21.0 °F 33% 30.73 in 10.0 mi ESE 10.4 mph 23.0 mph N/A   Clear
2:51 PM 48.0 °F - 18.0 °F 30% 30.69 in 10.0 mi East 11.5 mph 17.3 mph N/A   Clear
3:51 PM 48.9 °F - 19.9 °F 32% 30.68 in 10.0 mi SE 9.2 mph 17.3 mph N/A   Clear
4:51 PM 45.0 °F 39.3 °F 28.9 °F 53% 30.68 in 10.0 mi ESE 11.5 mph 20.7 mph N/A   Clear
5:51 PM 43.0 °F 37.7 °F 28.9 °F 58% 30.68 in 10.0 mi East 9.2 mph 18.4 mph N/A   Partly Cloudy
6:23 PM 42.8 °F 38.0 °F 30.2 °F 61% 30.67 in 10.0 mi East 8.1 mph 18.4 mph N/A   Mostly Cloudy
6:31 PM 42.8 °F 38.0 °F 30.2 °F 61% 30.67 in 10.0 mi East 8.1 mph 17.3 mph N/A   Scattered Clouds
6:38 PM 42.8 °F 38.0 °F 30.2 °F 61% 30.67 in 10.0 mi ENE 8.1 mph - N/A   Mostly Cloudy
6:51 PM 42.1 °F 37.7 °F 30.0 °F 62% 30.67 in 10.0 mi East 6.9 mph - N/A   Mostly Cloudy
7:23 PM 41.0 °F 38.0 °F 30.2 °F 65% 30.67 in 10.0 mi East 4.6 mph - N/A   Scattered Clouds
7:51 PM 41.0 °F 35.2 °F 32.0 °F 70% 30.67 in 10.0 mi ESE 9.2 mph - N/A   Partly Cloudy
8:51 PM 37.9 °F 35.5 °F 30.9 °F 76% 30.67 in 10.0 mi ENE 3.5 mph - N/A   Partly Cloudy
9:51 PM 36.0 °F - 30.9 °F 82% 30.66 in 10.0 mi Calm Calm - N/A   Clear
10:51 PM 35.1 °F - 30.0 °F 82% 30.64 in 10.0 mi Calm Calm - N/A   Clear
11:51 PM 33.1 °F - 28.0 °F 82% 30.62 in 10.0 mi Calm Calm - N/A   Clear